Robstown, TX

11:00 PM CDT on March 22, 2017 (GMT -0500)
Robstown

Weather History for KRBO - December, 2013

Change the Weather History Date:

Tuesday, December 24, 2013

  Actual Average (KCRP) Record (KCRP)
Temperature  
Mean Temperature 48 °F -  
Max Temperature 63 °F 64 °F 88 °F (1974)
Min Temperature 32 °F 43 °F 15 °F (1989)
Degree Days  
Heating Degree Days 18    
Moisture  
Dew Point 38 °F    
Average Humidity 67    
Maximum Humidity 89    
Minimum Humidity 34    
Precipitation  
Precipitation 0.00 in - - ()
Sea Level Pressure  
Sea Level Pressure 30.44 in    
Wind  
Wind Speed 5 mph (ENE)    
Max Wind Speed 13 mph    
Max Gust Speed 18 mph    
Visibility 10 miles    
Events      
Averages and records for this station are not official NWS values.
T = Trace of Precipitation, MM = Missing Value Source: NWS Daily Summary

Daily Weather History Graph

Daily Weather History Graph

Search for Another Location

Airport or City:

Trip Planner

Search our weather history database for the weather conditions in past years. The results will help you decide how hot, cold, wet, or windy it might be!

Date:

Astronomy

Dec. 24, 2013 Rise Set
Actual Time 7:18 AM CST 5:42 PM CST
Civil Twilight 6:53 AM CST 6:07 PM CST
Nautical Twilight 6:24 AM CST 6:37 PM CST
Astronomical Twilight 5:55 AM CST 7:05 PM CST
Moon No Moon Rise 11:46 AM CST (12/24)
Length of Visible Light 11h 14m
Length of Day
10h 23m
Waning Gibbous, 58% of the Moon is Illuminated
Dec 24
Waning Gibbous
Dec 25
Last Quarter
Jan 1
New
Jan 7
First Quarter
Jan 15
Full

Hourly Weather History & Observations

Time (CST) Temp. Windchill Dew Point Humidity Pressure Visibility Wind Dir Wind Speed Gust Speed Precip Events Conditions
12:15 AM 41.5 °F 37.8 °F 30.6 °F 65% 30.53 in 10.0 mi NNE 5.8 mph - N/A   Clear
12:35 AM 40.5 °F 36.5 °F 30.6 °F 68% 30.53 in 10.0 mi North 5.8 mph - N/A   Clear
12:55 AM 39.2 °F 35.9 °F 30.2 °F 70% 30.53 in 10.0 mi NNE 4.6 mph - N/A   Clear
1:15 AM 39.9 °F 36.7 °F 31.3 °F 71% 30.52 in 10.0 mi NNE 4.6 mph - N/A   Clear
1:35 AM 41.7 °F 37.3 °F 31.8 °F 68% 30.52 in 10.0 mi NNE 6.9 mph - N/A   Clear
1:55 AM 38.7 °F 34.3 °F 31.1 °F 74% 30.52 in 10.0 mi North 5.8 mph - N/A   Clear
2:15 AM 38.1 °F 35.7 °F 30.9 °F 75% 30.51 in 10.0 mi NNE 3.5 mph - N/A   Clear
2:35 AM 37.6 °F 34.0 °F 30.9 °F 77% 30.51 in 10.0 mi North 4.6 mph - N/A   Clear
2:55 AM 37.8 °F 35.3 °F 31.3 °F 77% 30.51 in 10.0 mi NNE 3.5 mph - N/A   Clear
3:15 AM 38.3 °F - 31.1 °F 75% 30.51 in 10.0 mi Calm Calm - N/A   Clear
3:35 AM 39.2 °F - 31.6 °F 74% 30.51 in 10.0 mi Calm Calm - N/A   Clear
3:55 AM 38.7 °F - 31.3 °F 75% 30.51 in 10.0 mi Calm Calm - N/A   Clear
4:15 AM 39.0 °F 36.8 °F 31.1 °F 73% 30.52 in 10.0 mi ENE 3.5 mph - N/A   Clear
4:35 AM 39.4 °F - 31.5 °F 73% 30.51 in 10.0 mi Calm Calm - N/A   Clear
4:55 AM 36.1 °F 32.3 °F 30.6 °F 80% 30.51 in 10.0 mi North 4.6 mph - N/A   Clear
5:15 AM 35.6 °F - 30.6 °F 82% 30.51 in 10.0 mi Calm Calm - N/A   Clear
5:35 AM 33.8 °F 30.8 °F 28.8 °F 82% 30.51 in 10.0 mi WSW 3.5 mph - N/A   Clear
5:55 AM 32.0 °F 28.7 °F 27.5 °F 83% 30.51 in 10.0 mi NW 3.5 mph - N/A   Clear
6:15 AM 33.3 °F 27.1 °F 29.3 °F 85% 30.51 in 10.0 mi North 6.9 mph - N/A   Clear
6:35 AM 33.8 °F 28.6 °F 29.8 °F 85% 30.52 in 10.0 mi North 5.8 mph - N/A   Clear
6:55 AM 32.2 °F - 29.1 °F 88% 30.52 in 10.0 mi Calm Calm - N/A   Clear
7:15 AM 33.3 °F 27.9 °F 29.8 °F 87% 30.52 in 10.0 mi North 5.8 mph - N/A   Clear
7:35 AM 33.3 °F 27.1 °F 29.8 °F 87% 30.52 in 10.0 mi North 6.9 mph - N/A   Clear
7:55 AM 35.2 °F 30.3 °F 31.3 °F 85% 30.53 in 10.0 mi North 5.8 mph - N/A   Clear
8:15 AM 39.0 °F 36.8 °F 32.9 °F 79% 30.53 in 10.0 mi North 3.5 mph - N/A   Clear
8:35 AM 41.4 °F - 34.0 °F 75% 30.54 in 10.0 mi Calm Calm - N/A   Clear
8:55 AM 43.9 °F 42.3 °F 35.2 °F 72% 30.54 in 10.0 mi North 3.5 mph - N/A   Clear
9:15 AM 46.9 °F - 36.5 °F 67% 30.54 in 10.0 mi NNE 3.5 mph - N/A   Clear
9:35 AM 49.1 °F - 36.9 °F 63% 30.54 in 10.0 mi ENE 5.8 mph - N/A   Clear
9:55 AM 50.9 °F - 37.9 °F 61% 30.54 in 10.0 mi NE 6.9 mph - N/A   Clear
10:15 AM 52.2 °F - 37.9 °F 58% 30.54 in 10.0 mi NE 5.8 mph - N/A   Clear
10:35 AM 54.3 °F - 39.0 °F 56% 30.53 in 10.0 mi ENE 4.6 mph - N/A   Clear
10:55 AM 56.3 °F - 40.1 °F 55% 30.53 in 10.0 mi ESE 5.8 mph - N/A   Clear
11:15 AM 57.6 °F - 40.6 °F 53% 30.52 in 10.0 mi ESE 8.1 mph 16.1 mph N/A   Clear
11:35 AM 58.8 °F - 40.8 °F 51% 30.51 in 10.0 mi East 8.1 mph - N/A   Clear
11:55 AM 59.4 °F - 40.5 °F 50% 30.49 in 10.0 mi East 10.4 mph - N/A   Clear
12:15 PM 61.0 °F - 39.0 °F 44% 30.47 in 10.0 mi East 8.1 mph - N/A   Clear
12:35 PM 61.2 °F - 37.8 °F 42% 30.46 in 10.0 mi East 9.2 mph 16.1 mph N/A   Clear
12:55 PM 61.9 °F - 38.7 °F 42% 30.44 in 10.0 mi ESE 6.9 mph - N/A   Clear
1:15 PM 62.8 °F - 37.9 °F 40% 30.43 in 10.0 mi East 9.2 mph - N/A   Clear
1:35 PM 62.8 °F - 39.0 °F 42% 30.41 in 10.0 mi East 9.2 mph - N/A   Clear
1:55 PM 63.9 °F - 36.0 °F 36% 30.41 in 10.0 mi East 9.2 mph 17.3 mph N/A   Clear
2:15 PM 63.5 °F - 34.5 °F 34% 30.40 in 10.0 mi East 11.5 mph - N/A   Clear
2:35 PM 63.7 °F - 35.8 °F 35% 30.39 in 10.0 mi ESE 8.1 mph - N/A   Clear
2:55 PM 63.1 °F - 39.9 °F 42% 30.38 in 10.0 mi ESE 6.9 mph 17.3 mph N/A   Clear
3:15 PM 63.0 °F - 41.5 °F 45% 30.38 in 10.0 mi East 8.1 mph - N/A   Clear
3:35 PM 63.5 °F - 43.0 °F 47% 30.38 in 10.0 mi ESE 9.2 mph 18.4 mph N/A   Clear
3:55 PM 62.8 °F - 44.2 °F 51% 30.38 in 10.0 mi East 12.7 mph - N/A   Clear
4:15 PM 62.1 °F - 45.5 °F 55% 30.38 in 10.0 mi East 11.5 mph - N/A   Clear
4:35 PM 61.7 °F - 45.7 °F 56% 30.38 in 10.0 mi East 12.7 mph - N/A   Scattered Clouds
4:55 PM 61.2 °F - 45.9 °F 57% 30.37 in 10.0 mi East 11.5 mph - N/A   Scattered Clouds
5:15 PM 60.6 °F - 46.4 °F 59% 30.37 in 10.0 mi East 11.5 mph - N/A   Scattered Clouds
5:35 PM 59.7 °F - 46.2 °F 61% 30.37 in 10.0 mi East 10.4 mph - N/A   Clear
5:55 PM 58.6 °F - 45.9 °F 63% 30.36 in 10.0 mi East 8.1 mph - N/A   Clear
6:15 PM 57.6 °F - 45.5 °F 64% 30.36 in 10.0 mi East 6.9 mph - N/A   Clear
6:35 PM 56.3 °F - 45.3 °F 67% 30.36 in 10.0 mi East 6.9 mph - N/A   Scattered Clouds
6:55 PM 55.6 °F - 44.8 °F 67% 30.35 in 10.0 mi ENE 5.8 mph - N/A   Clear
7:15 PM 54.9 °F - 45.0 °F 69% 30.35 in 10.0 mi East 5.8 mph - N/A   Scattered Clouds
7:35 PM 54.5 °F - 45.9 °F 73% 30.35 in 10.0 mi ENE 4.6 mph - N/A   Clear
7:55 PM 54.3 °F - 46.0 °F 74% 30.34 in 10.0 mi ENE 4.6 mph - N/A   Clear
8:15 PM 54.0 °F - 45.7 °F 74% 30.33 in 10.0 mi ENE 5.8 mph - N/A   Clear
8:35 PM 54.0 °F - 45.9 °F 74% 30.33 in 10.0 mi ENE 5.8 mph - N/A   Clear
8:55 PM 53.8 °F - 46.8 °F 77% 30.32 in 10.0 mi ENE 5.8 mph - N/A   Clear
9:15 PM 53.6 °F - 46.9 °F 78% 30.32 in 10.0 mi ENE 6.9 mph - N/A   Clear
9:35 PM 52.7 °F - 46.6 °F 80% 30.31 in 10.0 mi ENE 4.6 mph - N/A   Scattered Clouds
9:55 PM 52.7 °F - 47.3 °F 82% 30.30 in 10.0 mi ENE 4.6 mph - N/A   Scattered Clouds
10:15 PM 51.8 °F - 46.6 °F 82% 30.30 in 10.0 mi ENE 4.6 mph - N/A   Clear
10:35 PM 51.4 °F - 46.8 °F 84% 30.30 in 10.0 mi ENE 3.5 mph - N/A   Clear
10:55 PM 52.2 °F - 47.7 °F 85% 30.29 in 10.0 mi NE 3.5 mph - N/A   Clear
11:15 PM 50.2 °F - 46.0 °F 86% 30.29 in 10.0 mi North 3.5 mph - N/A   Clear
11:35 PM 48.6 °F - 45.0 °F 87% 30.28 in 10.0 mi North 3.5 mph - N/A   Clear
11:55 PM 48.7 °F - 45.5 °F 89% 30.27 in 10.0 mi Calm Calm - N/A   Clear